Luverne, MN

6:39 AM CST on February 28, 2017 (GMT -0600)
Luverne

Weather History for KLYV - June, 2013

Change the Weather History Date:

Monday, June 10, 2013

  Actual Average (KPQN) Record (KPQN)
Temperature  
Mean Temperature 66 °F -  
Max Temperature 77 °F 72 °F 93 °F (2016)
Min Temperature 55 °F 53 °F 48 °F (2006)
Cooling Degree Days 1    
Growing Degree Days 16 (Base 50)    
Moisture  
Dew Point 58 °F    
Average Humidity 79    
Maximum Humidity 94    
Minimum Humidity 54    
Precipitation  
Precipitation 0.00 in - - ()
Sea Level Pressure  
Sea Level Pressure 29.86 in    
Wind  
Wind Speed 5 mph (SSE)    
Max Wind Speed 9 mph    
Max Gust Speed 16 mph    
Visibility 7 miles    
Events Fog    
Averages and records for this station are not official NWS values.
T = Trace of Precipitation, MM = Missing Value Source: NWS Daily Summary

Daily Weather History Graph

Daily Weather History Graph

Search for Another Location

Airport or City:

Trip Planner

Search our weather history database for the weather conditions in past years. The results will help you decide how hot, cold, wet, or windy it might be!

Date:

Astronomy

Jun. 10, 2013 Rise Set
Actual Time 5:43 AM CDT 9:05 PM CDT
Civil Twilight 5:07 AM CDT 9:41 PM CDT
Nautical Twilight 4:21 AM CDT 10:28 PM CDT
Astronomical Twilight 3:22 AM CDT 11:26 PM CDT
Moon 7:35 AM CDT (6/10) 10:29 PM CDT (6/10)
Length of Visible Light 16h 34m
Length of Day
15h 22m
Waxing Crescent, 4% of the Moon is Illuminated
Jun 10
Waxing Crescent
Jun 16
First Quarter
Jun 23
Full
Jun 29
Last Quarter
Jul 8
New

Hourly Weather History & Observations

Time (CDT) Temp. Dew Point Humidity Pressure Visibility Wind Dir Wind Speed Gust Speed Precip Events Conditions
12:13 AM 59.0 °F 55.4 °F 88% 29.87 in 7.0 mi North 8.1 mph - N/A   Overcast
12:34 AM 59.0 °F 55.4 °F 88% 29.87 in 7.0 mi North 8.1 mph - N/A   Overcast
12:54 AM 59.0 °F 55.4 °F 88% 29.87 in 7.0 mi North 5.8 mph - N/A   Overcast
1:13 AM 59.0 °F 55.4 °F 88% 29.86 in 7.0 mi North 5.8 mph - N/A   Mostly Cloudy
1:34 AM 59.0 °F 53.6 °F 82% 29.86 in 7.0 mi Calm Calm - N/A   Scattered Clouds
1:54 AM 57.2 °F 53.6 °F 88% 29.86 in 7.0 mi Calm Calm - N/A   Clear
2:13 AM 57.2 °F 53.6 °F 88% 29.86 in 5.0 mi Calm Calm - N/A   Clear
2:34 AM 55.4 °F 53.6 °F 94% 29.85 in 4.0 mi Calm Calm - N/A   Clear
2:53 AM 55.4 °F 53.6 °F 94% 29.85 in 5.0 mi Calm Calm - N/A   Mostly Cloudy
3:14 AM 57.2 °F 53.6 °F 88% 29.85 in 5.0 mi Calm Calm - N/A   Overcast
3:34 AM 57.2 °F 55.4 °F 94% 29.85 in 5.0 mi Calm Calm - N/A   Overcast
3:53 AM 57.2 °F 55.4 °F 94% 29.84 in 5.0 mi Calm Calm - N/A   Overcast
4:14 AM 59.0 °F 55.4 °F 88% 29.84 in 5.0 mi Calm Calm - N/A   Overcast
4:33 AM 59.0 °F 55.4 °F 88% 29.84 in 4.0 mi NE 4.6 mph - N/A   Overcast
4:54 AM 59.0 °F 55.4 °F 88% 29.84 in 4.0 mi Calm Calm - N/A   Overcast
5:14 AM 57.2 °F 55.4 °F 94% 29.84 in 2.5 mi Calm Calm - N/A   Overcast
5:33 AM 57.2 °F 53.6 °F 88% 29.85 in 2.5 mi Calm Calm - N/A   Overcast
5:54 AM 57.2 °F 55.4 °F 94% 29.85 in 2.0 mi East 3.5 mph - N/A   Overcast
6:14 AM 57.2 °F 55.4 °F 94% 29.85 in 1.2 mi East 4.6 mph - N/A   Overcast
6:33 AM 57.2 °F 55.4 °F 94% 29.87 in 0.8 mi Calm Calm - N/A   Overcast
6:54 AM 57.2 °F 53.6 °F 88% 29.88 in 0.5 mi Calm Calm - N/A Fog Fog
7:14 AM 57.2 °F 55.4 °F 94% 29.89 in 0.5 mi SW 4.6 mph - N/A Fog Fog
7:33 AM 57.2 °F 55.4 °F 94% 29.90 in 0.8 mi West 4.6 mph - N/A   Overcast
7:54 AM 57.2 °F 55.4 °F 94% 29.91 in 1.0 mi West 6.9 mph - N/A   Overcast
8:14 AM 57.2 °F 55.4 °F 94% 29.90 in 1.0 mi WNW 5.8 mph - N/A   Overcast
8:33 AM 55.4 °F 53.6 °F 94% 29.90 in 0.8 mi West 5.8 mph - N/A   Overcast
8:54 AM 55.4 °F 53.6 °F 94% 29.90 in 1.8 mi Calm Calm - N/A   Overcast
9:14 AM 55.4 °F 53.6 °F 94% 29.90 in 5.0 mi Calm Calm - N/A   Overcast
9:33 AM 57.2 °F 53.6 °F 88% 29.90 in 5.0 mi Calm Calm - N/A   Overcast
9:54 AM 59.0 °F 53.6 °F 82% 29.89 in 7.0 mi Calm Calm - N/A   Overcast
10:14 AM 59.0 °F 53.6 °F 82% 29.89 in 10.0 mi ENE 3.5 mph - N/A   Overcast
10:33 AM 60.8 °F 55.4 °F 82% 29.89 in 7.0 mi ENE 4.6 mph - N/A   Overcast
10:54 AM 62.6 °F 57.2 °F 82% 29.88 in 10.0 mi ENE 8.1 mph - N/A   Mostly Cloudy
11:13 AM 62.6 °F 55.4 °F 77% 29.89 in 10.0 mi East 5.8 mph - N/A   Mostly Cloudy
11:34 AM 64.4 °F 57.2 °F 77% 29.89 in 10.0 mi East 5.8 mph - N/A   Scattered Clouds
11:54 AM 64.4 °F 57.2 °F 77% 29.88 in 10.0 mi ESE 4.6 mph - N/A   Scattered Clouds
12:13 PM 64.4 °F 57.2 °F 77% 29.88 in 10.0 mi SE 4.6 mph - N/A   Scattered Clouds
12:34 PM 68.0 °F 59.0 °F 73% 29.87 in 10.0 mi SE 5.8 mph - N/A   Clear
12:54 PM 68.0 °F 59.0 °F 73% 29.87 in 10.0 mi SSE 4.6 mph - N/A   Clear
1:13 PM 68.0 °F 59.0 °F 73% 29.87 in 10.0 mi SSE 6.9 mph - N/A   Clear
1:34 PM 69.8 °F 60.8 °F 73% 29.87 in 10.0 mi SSE 8.1 mph - N/A   Clear
1:54 PM 71.6 °F 60.8 °F 69% 29.87 in 10.0 mi South 8.1 mph - N/A   Scattered Clouds
2:13 PM 71.6 °F 60.8 °F 69% 29.87 in 10.0 mi SSW 9.2 mph - N/A   Scattered Clouds
2:34 PM 71.6 °F 60.8 °F 69% 29.86 in 10.0 mi SSE 9.2 mph 16.1 mph N/A   Mostly Cloudy
2:54 PM 71.6 °F 60.8 °F 69% 29.85 in 10.0 mi SSE 9.2 mph - N/A   Scattered Clouds
3:13 PM 71.6 °F 60.8 °F 69% 29.85 in 10.0 mi SSE 5.8 mph - N/A   Clear
3:34 PM 73.4 °F 60.8 °F 65% 29.85 in 10.0 mi South 6.9 mph - N/A   Clear
3:53 PM 73.4 °F 59.0 °F 61% 29.84 in 10.0 mi South 9.2 mph - N/A   Clear
4:14 PM 73.4 °F 60.8 °F 65% 29.84 in 10.0 mi SSE 9.2 mph - N/A   Clear
4:34 PM 73.4 °F 60.8 °F 65% 29.84 in 10.0 mi South 9.2 mph - N/A   Clear
4:53 PM 75.2 °F 59.0 °F 57% 29.83 in 10.0 mi SSE 8.1 mph - N/A   Clear
5:14 PM 75.2 °F 60.8 °F 61% 29.84 in 10.0 mi SSE 8.1 mph - N/A   Clear
5:34 PM 77.0 °F 59.0 °F 54% 29.83 in 10.0 mi SSE 8.1 mph - N/A   Clear
5:53 PM 77.0 °F 59.0 °F 54% 29.83 in 10.0 mi South 8.1 mph - N/A   Clear
6:14 PM 77.0 °F 59.0 °F 54% 29.83 in 10.0 mi South 8.1 mph - N/A   Clear
6:34 PM 77.0 °F 59.0 °F 54% 29.83 in 10.0 mi South 6.9 mph - N/A   Clear
6:53 PM 77.0 °F 59.0 °F 54% 29.83 in 10.0 mi South 8.1 mph - N/A   Clear
7:14 PM 75.2 °F 59.0 °F 57% 29.82 in 10.0 mi SSE 9.2 mph - N/A   Clear
7:34 PM 75.2 °F 60.8 °F 61% 29.82 in 10.0 mi SSE 9.2 mph - N/A   Clear
7:53 PM 73.4 °F 60.8 °F 65% 29.82 in 10.0 mi SSE 6.9 mph - N/A   Clear
8:14 PM 73.4 °F 60.8 °F 65% 29.82 in 10.0 mi SSE 6.9 mph - N/A   Clear
8:34 PM 73.4 °F 60.8 °F 65% 29.83 in 10.0 mi SSE 5.8 mph - N/A   Clear
8:53 PM 71.6 °F 62.6 °F 73% 29.83 in 10.0 mi SSE 3.5 mph - N/A   Clear
9:14 PM 69.8 °F 62.6 °F 78% 29.83 in 10.0 mi SE 4.6 mph - N/A   Clear
9:34 PM 69.8 °F 62.6 °F 78% 29.84 in 10.0 mi SE 3.5 mph - N/A   Clear
9:53 PM 68.0 °F 60.8 °F 78% 29.85 in 10.0 mi SE 3.5 mph - N/A   Clear
10:14 PM 68.0 °F 60.8 °F 78% 29.85 in 10.0 mi SE 5.8 mph - N/A   Clear
10:34 PM 66.2 °F 60.8 °F 83% 29.85 in 10.0 mi Calm Calm - N/A   Clear
10:53 PM 64.4 °F 60.8 °F 88% 29.86 in 10.0 mi SSE 4.6 mph - N/A   Clear
11:14 PM 68.0 °F 62.6 °F 83% 29.85 in 10.0 mi South 3.5 mph - N/A   Clear
11:34 PM 68.0 °F 62.6 °F 83% 29.84 in 10.0 mi SSE 5.8 mph - N/A   Clear
11:53 PM 68.0 °F 60.8 °F 78% 29.84 in 10.0 mi South 4.6 mph - N/A   Scattered Clouds